Weather Roundup
Issued by NWS Corpus Christi, TX

Home | Current Version | Previous Version | Text Only | Print | Product List | Glossary On
Versions: 1 2 3 4 5 6 7 8 9 10 11 12 13 14 15 16 17 18 19 20 21 22 23 24 25 26 27 28 29 30 31 32 33 34 35 36 37 38 39 40 41 42 43 44 45 46 47 48 49 50
000
ASUS44 KCRP 241110
HRRCRP

SOUTH TEXAS REGIONAL WEATHER ROUNDUP
NATIONAL WEATHER SERVICE CORPUS CHRISTI TX
600 AM CDT MON APR 24 2017


TXZ229>244-241200-
...CORPUS CHRISTI AREA OBSERVATIONS...

CITY           SKY/WX    TMP DP  RH WIND       PRES   REMARKS
CORPUS CHRISTI CLEAR     55  51  86 W5        29.96S
NAS CORPUS CHR PTCLDY    62  54  74 SW5       29.96
ROCKPORT       CLEAR     57  51  80 CALM      29.95F
KINGSVILLE NAS CLEAR     51  49  92 CALM      29.96F
ALICE          CLEAR     50  46  86 CALM      29.96F
ORANGE GROVE     N/A    N/A N/A N/A MISG      29.97F
FALFURRIAS     CLEAR     56  49  77 CALM      29.96F
$$

...VICTORIA AREA OBSERVATIONS...

CITY           SKY/WX    TMP DP  RH WIND       PRES   REMARKS
VICTORIA       PTCLDY    51  48  89 NW3       29.97S
BEEVILLE       FAIR      54  48  81 CALM      29.96S
PLEASANTON     MOCLDY    46  43  90 CALM      29.97F
SAN ANTONIO    MOCLDY    51  44  77 NW5       29.97F
$$

...LAREDO AREA OBSERVATIONS...

CITY           SKY/WX    TMP DP  RH WIND       PRES   REMARKS
LAREDO         CLOUDY    60  47  61 SE8       29.96R
COTULLA        CLOUDY    54  44  69 E5        29.95F
DEL RIO        NOT AVBL
MCALLEN        CLEAR     61  53  75 CALM      29.97F
HEBBRONVILLE   CLEAR     54  46  74 CALM      29.96F
$$

...OTHER TEXAS OBSERVATIONS...

CITY           SKY/WX    TMP DP  RH WIND       PRES   REMARKS
BROWNSVILLE    CLEAR     59  54  83 CALM      29.97S
HOUSTON        CLEAR     52  50  93 CALM      29.96S
COL. STATION   CLEAR     50  46  86 CALM      29.97R
AUSTIN         CLOUDY    44  42  93 W3        29.97S
WACO           CLEAR     44  44 100 CALM      29.96S
FORT WORTH     PTCLDY    53  44  71 SW8       29.94R
WICHITA FALLS  CLEAR     43  39  86 S8        29.91F
LUBBOCK        MOCLDY    51  32  48 S12       29.86F
EL PASO        MOCLDY    68  36  30 VRB7      29.86R
$$

...MARINE OBSERVATIONS...

STATION/POSITION TIME  SKY/WX   TEMP    WIND        PRES    VSBY  WAVE   SWELL
                                AIR SEA DIR/SP/G                  HT/PER HT/PER
                 (UTC)          (F)     (DEG/KT/KT) (MB)    (MI)  (FT/S) (FT/S)
PORT ARANSAS     1100            70 74  120/  4/  5 1014.5R
BUOY 90 E PORT A 1050            70 75  330/  2/  4 1014.2R         2/ 5   2/ 5
BUOY 45 SE BAFFI 1050            71     110/  4/  6 1013.7S         3/ 6   3/ 6
BUOY 200 E PT IS 1050            71 79  350/  6/ 10 1014.0R         4/ 6   3/ 6
BUOY 15 E GALVES 1050            68 74   CALM  /  2 1014.0F         1/ 8
$$



USA.gov is the U.S. government's official web portal to all federal, state and local government web resources and services.